DECAYED

NUSAT 1 DEB, 43427 (Decayed)

Orbit data source: Space-Track

NUSAT 1 DEB, 43427 was space debris in LEO originally from a launch on Mon, 30 May 2016 UTC launched from the Taiyaun Space Center, China (TSC). Debris objects in space refer to the collection of defunct objects orbiting the Earth. Examples of debris include non-operational satellites, rocket bodies, and fragments generated from explosions, collisions, or faulty payload assembly.

Not visible in the next 10 days
NUSAT 1 DEB details
Identifier
43427, 2016-033E
Orbit
Decayed
Last TLE update8 months ago
Origin
Flag of ARCNSA (AR / ARGN)
ManufacturerCAST
MissionDecayed spacecraft
Bus & MotorUnknown
MassUnknown
Launch date (UTC)
2016-05-30 (9 years ago)
Launch vehicleUnknown
Launch site
Taiyaun Space Center, China (TSC)
Object type
Payload
Rocket body
Debris
Shape & HBRUnknown
Radar Cross SectionSmall (<0.1 m²)

Expand to show TLE details & history

TLE from 8 months ago
0 NUSAT 1 DEB
1 43427U 16033E   24113.82383959  .10580850  26104-5  65739-2 0  9998
2 43427  97.5580  68.7815 0003275 163.3471 196.7925 16.17944899417248
Epoch: 2024-04-22T19:46Z
Definitive object data (Epoch: 2024-04-22T19:46:19.74Z)
Latitude0.00003°
Longitude-79.15791°
Altitude230.426 km
Speed7.767 km/s
True Right ascension04h 35m 07s
True Declination0° 00' 00"
Sunlit
Object was in daylight at TLE epoch
Visualization observer readout
Observer readout values are unavailable because the object's trajectory could not be propagated. This is usually caused when the trajectory data is faulty or the object's orbit has decayed.
Visualization observer readout
Observer readout values are unavailable because the object's trajectory could not be propagated. This is usually caused when the trajectory data is faulty or the object's orbit has decayed.
Orbital elements
Apogee altitude224.143 km
Perigee altitude219.819 km
Semi-major axis6,600.118 km
Eccentricity0.0003275
Inclination97.558°
RAAN68.7815°
Arg. of periapsis163.3471°
True anomaly196.78166°
Mean anomaly196.7925°
Eccentric anomaly196.78708°
Mean motion4.04777 °/min
BSTAR0.0065739
Orbital period88.94 mins
Loading maneuver chart data...
Loading historical data...
Loading historical data...
Loading historical data...
Loading historical data...
Loading historical data...
Loading historical data...
Loading historical data...

NUSAT 1 DEB Visibility forecast

Observer location: undefined°, undefined

This satellite is decayed
Span
Click to sort rows by Start time (UTC) header in descending order
Start Az.
Max El. time (UTC)
Max El. Az.
Max El.
End time (UTC)
End Az.
|